Total_Precipitation_Accumulation
0.14 0.19 0.42 0.55 0.56 0.49 0.46 0.41 0.35 0.32 0.33 0.37 0.36 0.34 0.34 0.35 0.33 0.30 0.31 0.34 0.45 0.54 0.62 0.64 0.69 0.75 0.73 0.63 0.45 0.29 0.20 0.18 0.14 0.11 0.12 0.14 0.17 0.20 0.20 0.21 0.24 0.31 0.37
0.13 0.20 0.44 0.58 0.60 0.50 0.46 0.44 0.39 0.36 0.35 0.38 0.42 0.41 0.39 0.39 0.42 0.43 0.41 0.43 0.50 0.57 0.65 0.71 0.77 0.77 0.71 0.54 0.34 0.22 0.12 0.09 0.06 0.03 0.03 0.05 0.10 0.17 0.18 0.16 0.18 0.31 0.37
0.19 0.27 0.45 0.61 0.61 0.55 0.49 0.43 0.39 0.39 0.41 0.45 0.48 0.48 0.46 0.45 0.47 0.53 0.55 0.52 0.52 0.55 0.64 0.72 0.71 0.67 0.59 0.40 0.25 0.18 0.11 0.08 0.05 0.03 0.04 0.08 0.14 0.23 0.22 0.19 0.25 0.34 0.39
0.26 0.31 0.45 0.62 0.66 0.63 0.55 0.45 0.44 0.46 0.47 0.54 0.57 0.57 0.59 0.58 0.57 0.55 0.57 0.54 0.51 0.50 0.56 0.58 0.49 0.43 0.38 0.27 0.20 0.15 0.11 0.08 0.06 0.05 0.09 0.14 0.20 0.36 0.36 0.31 0.31 0.33 0.36
0.39 0.40 0.55 0.72 0.78 0.75 0.65 0.56 0.51 0.52 0.55 0.57 0.63 0.68 0.71 0.74 0.68 0.60 0.55 0.52 0.48 0.42 0.38 0.35 0.32 0.28 0.25 0.22 0.18 0.13 0.09 0.07 0.06 0.06 0.09 0.16 0.27 0.52 0.45 0.37 0.36 0.39 0.39
0.52 0.57 0.73 0.90 0.97 0.96 0.81 0.70 0.65 0.63 0.63 0.65 0.66 0.71 0.78 0.85 0.83 0.72 0.58 0.44 0.39 0.35 0.31 0.26 0.24 0.23 0.20 0.17 0.14 0.12 0.11 0.08 0.05 0.06 0.10 0.17 0.29 0.52 0.45 0.39 0.36 0.38 0.40
0.53 0.66 0.84 1.07 1.13 1.13 1.00 0.90 0.87 0.81 0.78 0.76 0.74 0.77 0.82 0.83 0.78 0.71 0.52 0.39 0.33 0.32 0.31 0.27 0.24 0.24 0.22 0.18 0.14 0.13 0.11 0.08 0.06 0.07 0.11 0.17 0.31 0.51 0.46 0.40 0.36 0.37 0.38
0.58 0.74 0.94 1.20 1.23 1.21 1.15 1.04 1.01 1.01 0.97 0.92 0.88 0.88 0.89 0.86 0.77 0.65 0.53 0.44 0.36 0.34 0.34 0.31 0.27 0.25 0.25 0.23 0.19 0.16 0.12 0.08 0.06 0.07 0.10 0.13 0.25 0.39 0.36 0.33 0.32 0.33 0.34
0.82 0.92 1.07 1.27 1.36 1.37 1.27 1.13 1.06 1.08 1.09 1.06 0.99 0.92 0.84 0.79 0.75 0.65 0.54 0.48 0.43 0.39 0.37 0.33 0.31 0.28 0.27 0.26 0.24 0.18 0.12 0.08 0.07 0.07 0.08 0.10 0.18 0.29 0.29 0.30 0.32 0.34 0.36
1.17 1.22 1.31 1.38 1.40 1.39 1.31 1.20 1.15 1.12 1.14 1.18 1.11 0.91 0.78 0.71 0.69 0.65 0.53 0.48 0.44 0.41 0.39 0.34 0.32 0.29 0.28 0.25 0.21 0.16 0.13 0.11 0.08 0.06 0.07 0.09 0.15 0.23 0.26 0.30 0.31 0.35 0.37
1.61 1.52 1.55 1.57 1.55 1.53 1.46 1.32 1.26 1.18 1.15 1.16 1.12 0.93 0.81 0.77 0.69 0.61 0.48 0.40 0.40 0.39 0.38 0.37 0.35 0.30 0.26 0.21 0.18 0.17 0.16 0.14 0.11 0.11 0.11 0.12 0.18 0.27 0.31 0.33 0.31 0.34 0.36
1.87 1.76 1.67 1.64 1.58 1.61 1.58 1.48 1.44 1.28 1.16 1.11 0.98 0.94 0.88 0.80 0.69 0.57 0.50 0.44 0.41 0.38 0.38 0.41 0.41 0.36 0.27 0.19 0.17 0.17 0.16 0.15 0.15 0.13 0.13 0.17 0.27 0.37 0.38 0.36 0.33 0.34 0.35
2.01 2.00 1.92 1.84 1.73 1.63 1.68 1.57 1.49 1.40 1.26 1.17 1.02 0.98 0.95 0.92 0.82 0.74 0.64 0.63 0.57 0.46 0.45 0.43 0.45 0.35 0.24 0.18 0.16 0.14 0.14 0.16 0.16 0.15 0.14 0.17 0.27 0.39 0.42 0.41 0.39 0.38 0.37
2.22 2.16 2.15 2.06 2.00 1.81 1.72 1.66 1.61 1.49 1.36 1.21 1.05 0.99 0.98 0.91 0.82 0.73 0.62 0.60 0.62 0.49 0.46 0.44 0.39 0.31 0.26 0.20 0.16 0.15 0.14 0.14 0.14 0.16 0.17 0.17 0.23 0.34 0.41 0.44 0.44 0.41 0.41
2.50 2.46 2.38 2.21 2.15 2.06 1.85 1.70 1.67 1.64 1.54 1.38 1.28 1.12 1.01 0.90 0.75 0.67 0.61 0.61 0.60 0.52 0.46 0.45 0.38 0.35 0.32 0.28 0.22 0.18 0.15 0.14 0.14 0.15 0.17 0.17 0.20 0.26 0.35 0.41 0.46 0.48 0.51
2.68 2.75 2.69 2.49 2.27 2.19 1.99 1.73 1.65 1.71 1.69 1.66 1.48 1.26 1.21 1.08 0.91 0.77 0.69 0.66 0.61 0.56 0.52 0.48 0.42 0.41 0.39 0.35 0.28 0.22 0.20 0.18 0.17 0.16 0.16 0.18 0.19 0.20 0.28 0.39 0.47 0.53 0.59
2.60 2.82 2.88 2.76 2.59 2.36 2.21 1.98 1.74 1.80 1.83 1.80 1.66 1.46 1.38 1.32 1.18 1.01 0.86 0.74 0.63 0.60 0.60 0.62 0.60 0.55 0.48 0.43 0.35 0.29 0.25 0.23 0.21 0.18 0.17 0.17 0.18 0.19 0.24 0.33 0.41 0.49 0.55
2.61 2.69 2.90 2.90 2.84 2.69 2.48 2.25 1.93 1.82 1.85 1.80 1.68 1.57 1.45 1.39 1.32 1.22 1.04 0.89 0.79 0.75 0.73 0.71 0.69 0.65 0.56 0.49 0.43 0.40 0.35 0.30 0.25 0.25 0.23 0.20 0.19 0.18 0.21 0.28 0.33 0.38 0.46
2.58 2.63 2.80 2.90 2.93 2.99 2.90 2.71 2.35 2.02 1.98 1.93 1.80 1.61 1.51 1.44 1.38 1.32 1.19 1.05 1.01 0.94 0.82 0.76 0.73 0.68 0.65 0.60 0.56 0.50 0.45 0.39 0.35 0.36 0.35 0.31 0.28 0.26 0.24 0.28 0.30 0.31 0.37
2.77 2.84 2.84 2.95 3.14 3.30 3.39 3.20 2.94 2.48 2.18 2.03 1.89 1.73 1.60 1.52 1.45 1.39 1.34 1.24 1.16 1.14 1.05 0.93 0.83 0.78 0.73 0.68 0.65 0.61 0.57 0.51 0.45 0.42 0.40 0.38 0.37 0.35 0.33 0.34 0.33 0.32 0.32
2.82 2.98 3.01 2.94 3.11 3.41 3.36 3.13 2.86 2.57 2.34 2.12 1.98 1.86 1.74 1.64 1.54 1.44 1.32 1.35 1.34 1.26 1.20 1.13 1.09 1.02 0.95 0.91 0.90 0.79 0.66 0.60 0.54 0.47 0.45 0.44 0.42 0.41 0.40 0.41 0.39 0.37 0.37
2.60 2.92 2.95 3.02 3.14 3.33 3.27 3.17 3.08 2.93 2.70 2.45 2.28 2.00 1.82 1.70 1.60 1.54 1.41 1.30 1.35 1.38 1.30 1.25 1.25 1.25 1.20 1.16 1.16 1.12 0.95 0.78 0.60 0.50 0.49 0.49 0.49 0.52 0.54 0.52 0.50 0.47 0.45
2.06 2.51 2.71 2.75 2.94 3.11 3.32 3.61 3.60 3.42 3.03 2.56 2.26 2.10 1.95 1.91 1.81 1.66 1.63 1.53 1.39 1.41 1.37 1.28 1.19 1.19 1.21 1.22 1.21 1.30 1.20 0.94 0.73 0.60 0.51 0.49 0.49 0.52 0.55 0.55 0.54 0.51 0.48
1.67 2.06 2.43 2.62 2.74 2.80 2.93 3.25 3.39 3.26 2.87 2.48 2.23 2.19 2.20 2.12 2.09 2.00 1.86 1.78 1.64 1.53 1.47 1.45 1.40 1.31 1.28 1.28 1.24 1.16 1.10 0.98 0.94 0.79 0.61 0.54 0.52 0.53 0.55 0.55 0.53 0.53 0.55
1.40 1.77 2.11 2.38 2.59 2.62 2.57 2.73 3.00 3.15 3.05 2.85 2.59 2.42 2.32 2.24 2.13 2.09 2.02 1.95 1.81 1.69 1.64 1.64 1.59 1.54 1.50 1.42 1.36 1.27 1.21 1.07 0.97 0.98 0.80 0.62 0.61 0.60 0.61 0.61 0.59 0.58 0.59
1.19 1.44 1.74 2.01 2.34 2.51 2.47 2.55 2.66 2.75 2.90 2.86 2.59 2.51 2.41 2.39 2.28 2.12 2.02 1.98 1.93 1.85 1.78 1.77 1.78 1.71 1.61 1.55 1.52 1.45 1.43 1.35 1.16 1.13 1.05 0.83 0.77 0.70 0.70 0.70 0.71 0.71 0.70